LEMUR-2-NICK-ALLAIN

Last updated on Thu Apr 06 2017 00:15:05 GMT+0000 (Coordinated Universal Time)

1 41488U 98067JJ 17094.87844965 .04570311 12034-4 11307-2 0 9996 2 41488 51.6143 5.3663 0009819 231.1408 129.3884 16.28244348 50480

Satellite not in orbit